NOAA Logo National Centers for Environmental Information

formerly the National Oceanographic Data Center (NODC)...  more on NCEI

NOAA Satellite and Information Service

CRUISE INFORMATION RECORD AND DATA
 
NODC Cruise US-31248 Information
WOD CRUISE REFERENCE #US031248
DATA:
in WOD format US031248_XBT.dat
US031248_CTD.dat
in 'csv' format US031248_XBT.csv
US031248_CTD.csv
METADATA:
COUNTRYUNITED STATES (US)
NODC ACCESSION NUMBER (XBT)65687
SHIP NAMEPOINT SUR
INSTITUTEUS NAVY POSTGRADUATE SCHOOL (MONTEREY; CA)
DATE OF FIRST CAST8/ 6/ 4
DATE OF LAST CAST8/10/2004
TOTAL NUMBER OF CASTS41
Temperature [t] PROFILES41
Salinity [s] PROFILES28
Oxygen [o] PROFILES28
Chlorophyll [c] PROFILES28
Transmissiv [v] PROFILES28
Pressure [w] PROFILES28
UNIQUE CAST #LATITUDELONGITUDEDATETIMEPROBE TYPE
1308914335.472-123.0198/6/41.901XBT
1308914435.314-122.9058/6/43.805XBT
1308914535.141-122.7828/6/46.171XBT
1308914634.894-122.6238/6/413.456XBT
1308914734.757-122.5098/6/415.608XBT
1308914834.617-122.4208/6/417.639XBT
1308914934.457-122.2998/6/419.989XBT
1308915034.313-122.1998/6/423.545XBT
1308915134.386-122.1088/7/42.126XBT
1308915234.407-122.1008/7/42.297XBT
1308915334.526-121.9848/7/44.481XBT
1308915433.617-119.7648/10/420.826XBT
1308915533.644-119.6548/10/421.513XBT
1308876035.547-123.0758/6/20041.245CTD
1308876135.547-123.0758/6/20041.245CTD
1308876235.400-122.9688/6/20043.150CTD
1308876335.400-122.9688/6/20043.150CTD
1308876435.259-122.8738/6/20044.978CTD
1308876535.259-122.8738/6/20044.978CTD
1308876635.115-122.7768/6/20047.234CTD
1308876735.115-122.7768/6/20047.234CTD
1308876834.992-122.7128/6/200411.721CTD
1308876934.992-122.7128/6/200411.721CTD
1308877034.834-122.5668/6/200414.915CTD
1308877134.834-122.5668/6/200414.915CTD
1308877234.688-122.4658/6/200417.008CTD
1308877334.688-122.4658/6/200417.008CTD
1308877434.547-122.3668/6/200419.124CTD
1308877534.547-122.3668/6/200419.124CTD
1308877634.401-122.2698/6/200421.405CTD
1308877734.401-122.2698/6/200421.405CTD
1308877834.253-122.1528/7/20040.859CTD
1308877934.253-122.1528/7/20040.859CTD
1308878034.482-122.0848/7/20043.703CTD
1308878134.482-122.0848/7/20043.703CTD
1308878234.559-121.9128/7/20045.891CTD
1308878334.559-121.9128/7/20045.891CTD
1308878433.574-119.9538/10/200417.730CTD
1308878533.574-119.9538/10/200417.730CTD
1308878633.741-119.6148/10/200423.247CTD
1308878733.741-119.6148/10/200423.247CTD


  Last modified:    Fri, 6-Aug-2010 18:10 UTC NCEI.info@noaa.gov
 
Dept. of Commerce - NOAA - NESDIS - NCEI
* Offsite Link Notification
USA.gov - The U.S. Government's Web Portal